Wetterdaten: aktuell Dienstag, 18.12.2018 18:20
Datum Zeit Temp. A. Auen 2 Feuchte A. Luftdruck Regen Wind Richtung Richtung Sonnenschein T Regen Solar Taupunkt Windchill Windben Empfang
18.12.2018 18:20 0,8 C 0,0 C 96 % 1023,6 hPa 0,0 l/m 0,9 km/h (0 Bft) O 89 0 min 0 min 0 W/m 0,2 C 0,8 C 1,6 km/h (1 Bft) 88 %
18.12.2018 18:19 0,8 C 0,0 C 96 % 1023,6 hPa 0,0 l/m 0,9 km/h (0 Bft) O 89 0 min 0 min 0 W/m 0,2 C 0,8 C 1,6 km/h (1 Bft) 91 %
18.12.2018 18:18 0,8 C 0,0 C 96 % 1023,6 hPa 0,0 l/m 2,3 km/h (1 Bft) O 89 0 min 0 min 0 W/m 0,2 C 0,8 C 3,2 km/h (1 Bft) 91 %
18.12.2018 18:17 0,8 C 0,0 C 96 % 1023,6 hPa 0,0 l/m 2,0 km/h (1 Bft) O 92 0 min 0 min 0 W/m 0,2 C 0,8 C 4,8 km/h (1 Bft) 88 %
18.12.2018 18:16 0,8 C 0,0 C 96 % 1023,6 hPa 0,0 l/m 2,4 km/h (1 Bft) O 87 0 min 0 min 0 W/m 0,2 C 0,8 C 4,8 km/h (1 Bft) 78 %
18.12.2018 18:15 0,8 C 0,0 C 96 % 1023,7 hPa 0,0 l/m 0,9 km/h (0 Bft) O 90 0 min 0 min 0 W/m 0,2 C 0,8 C 3,2 km/h (1 Bft) 96 %
18.12.2018 18:14 0,8 C 0,0 C 96 % 1023,6 hPa 0,0 l/m 3,4 km/h (1 Bft) O 89 0 min 0 min 0 W/m 0,2 C 0,8 C 4,8 km/h (1 Bft) 74 %
18.12.2018 18:13 0,8 C 0,0 C 96 % 1023,7 hPa 0,0 l/m 3,9 km/h (1 Bft) O 98 0 min 0 min 0 W/m 0,2 C 0,8 C 6,4 km/h (2 Bft) 78 %
18.12.2018 18:12 0,8 C 0,0 C 96 % 1023,7 hPa 0,0 l/m 2,7 km/h (1 Bft) O-SO 114 0 min 0 min 0 W/m 0,2 C 0,8 C 3,2 km/h (1 Bft) 92 %
18.12.2018 18:11 0,8 C 0,0 C 96 % 1023,7 hPa 0,0 l/m 1,1 km/h (1 Bft) W-SW 253 0 min 0 min 0 W/m 0,2 C 0,8 C 3,2 km/h (1 Bft) 78 %
18.12.2018 18:10 0,8 C 0,0 C 96 % 1023,6 hPa 0,0 l/m 2,2 km/h (1 Bft) SW 226 0 min 0 min 0 W/m 0,2 C 0,8 C 4,8 km/h (1 Bft) 83 %
18.12.2018 18:09 0,8 C 0,0 C 96 % 1023,7 hPa 0,0 l/m 3,6 km/h (1 Bft) S-SW 202 0 min 0 min 0 W/m 0,2 C 0,8 C 4,8 km/h (1 Bft) 87 %
18.12.2018 18:08 0,8 C 0,0 C 96 % 1023,6 hPa 0,0 l/m 2,0 km/h (1 Bft) O-SO 116 0 min 0 min 0 W/m 0,2 C 0,8 C 3,2 km/h (1 Bft) 88 %
18.12.2018 18:07 0,8 C 0,0 C 96 % 1023,6 hPa 0,0 l/m 0,0 km/h (0 Bft) NO 41 0 min 0 min 0 W/m 0,2 C 0,8 C 0,0 km/h (0 Bft) 91 %
18.12.2018 18:06 0,8 C 0,0 C 96 % 1023,6 hPa 0,0 l/m 0,1 km/h (0 Bft) NO 40 0 min 0 min 0 W/m 0,2 C 0,8 C 1,6 km/h (1 Bft) 87 %
18.12.2018 18:05 0,8 C 0,0 C 96 % 1023,7 hPa 0,0 l/m 0,3 km/h (0 Bft) NO 40 0 min 0 min 0 W/m 0,2 C 0,8 C 1,6 km/h (1 Bft) 92 %
18.12.2018 18:04 0,8 C 0,0 C 96 % 1023,7 hPa 0,0 l/m 0,0 km/h (0 Bft) NO 40 0 min 0 min 0 W/m 0,2 C 0,8 C 0,0 km/h (0 Bft) 78 %
18.12.2018 18:03 0,8 C 0,0 C 96 % 1023,7 hPa 0,0 l/m 0,0 km/h (0 Bft) NO 40 0 min 0 min 0 W/m 0,2 C 0,8 C 0,0 km/h (0 Bft) 92 %
18.12.2018 18:02 0,8 C 0,0 C 96 % 1023,7 hPa 0,0 l/m 0,0 km/h (0 Bft) NO 40 0 min 0 min 0 W/m 0,2 C 0,8 C 0,0 km/h (0 Bft) 92 %
18.12.2018 18:01 0,8 C 0,0 C 96 % 1023,7 hPa 0,0 l/m 0,0 km/h (0 Bft) NO 41 0 min 0 min 0 W/m 0,2 C 0,8 C 0,0 km/h (0 Bft) 91 %
18.12.2018 18:00 0,8 C 0,0 C 96 % 1023,8 hPa 0,0 l/m 0,1 km/h (0 Bft) NO 41 0 min 0 min 0 W/m 0,2 C 0,8 C 1,6 km/h (1 Bft) 92 %
18.12.2018 17:59 0,8 C 0,0 C 96 % 1023,8 hPa 0,0 l/m 1,1 km/h (1 Bft) NO 41 0 min 0 min 0 W/m 0,2 C 0,8 C 3,2 km/h (1 Bft) 91 %
18.12.2018 17:58 0,8 C 0,0 C 96 % 1023,8 hPa 0,0 l/m 3,5 km/h (1 Bft) NO 41 0 min 0 min 0 W/m 0,2 C 0,8 C 4,8 km/h (1 Bft) 88 %
18.12.2018 17:57 0,8 C 0,0 C 96 % 1023,8 hPa 0,0 l/m 1,5 km/h (1 Bft) O-NO 77 0 min 0 min 0 W/m 0,2 C 0,8 C 3,2 km/h (1 Bft) 83 %
18.12.2018 17:56 0,8 C 0,0 C 96 % 1023,8 hPa 0,0 l/m 0,1 km/h (0 Bft) O-NO 78 0 min 0 min 0 W/m 0,2 C 0,8 C 1,6 km/h (1 Bft) 87 %
18.12.2018 17:55 0,8 C 0,0 C 96 % 1023,8 hPa 0,0 l/m 0,4 km/h (0 Bft) O-NO 78 0 min 0 min 0 W/m 0,2 C 0,8 C 1,6 km/h (1 Bft) 92 %
18.12.2018 17:54 0,8 C 0,0 C 96 % 1023,8 hPa 0,0 l/m 0,1 km/h (0 Bft) O-NO 78 0 min 0 min 0 W/m 0,2 C 0,8 C 1,6 km/h (1 Bft) 87 %
18.12.2018 17:53 0,8 C 0,0 C 96 % 1023,7 hPa 0,0 l/m 0,7 km/h (0 Bft) O-NO 78 0 min 0 min 0 W/m 0,2 C 0,8 C 1,6 km/h (1 Bft) 96 %
18.12.2018 17:52 0,8 C 0,0 C 96 % 1023,7 hPa 0,0 l/m 0,4 km/h (0 Bft) O 80 0 min 0 min 0 W/m 0,2 C 0,8 C 1,6 km/h (1 Bft) 91 %
18.12.2018 17:51 0,8 C 0,0 C 96 % 1023,8 hPa 0,0 l/m 0,1 km/h (0 Bft) O 80 0 min 0 min 0 W/m 0,2 C 0,8 C 1,6 km/h (1 Bft) 88 %
18.12.2018 17:50 0,8 C 0,0 C 96 % 1023,7 hPa 0,0 l/m 0,2 km/h (0 Bft) O 80 0 min 0 min 0 W/m 0,2 C 0,8 C 1,6 km/h (1 Bft) 96 %
18.12.2018 17:49 0,8 C 0,0 C 96 % 1023,8 hPa 0,0 l/m 1,7 km/h (1 Bft) O 80 0 min 0 min 0 W/m 0,2 C 0,8 C 3,2 km/h (1 Bft) 96 %
18.12.2018 17:48 0,8 C 0,0 C 96 % 1023,8 hPa 0,0 l/m 0,0 km/h (0 Bft) O-SO 104 0 min 0 min 0 W/m 0,2 C 0,8 C 0,0 km/h (0 Bft) 96 %
18.12.2018 17:47 0,7 C 0,0 C 96 % 1023,8 hPa 0,0 l/m 1,1 km/h (1 Bft) O-SO 104 0 min 0 min 0 W/m 0,1 C 0,7 C 1,6 km/h (1 Bft) 96 %
18.12.2018 17:46 0,7 C 0,0 C 96 % 1023,8 hPa 0,0 l/m 0,9 km/h (0 Bft) O-SO 104 0 min 0 min 0 W/m 0,1 C 0,7 C 3,2 km/h (1 Bft) 92 %
18.12.2018 17:45 0,7 C 0,0 C 96 % 1023,7 hPa 0,0 l/m 0,1 km/h (0 Bft) O-SO 106 0 min 0 min 0 W/m 0,1 C 0,7 C 1,6 km/h (1 Bft) 78 %
18.12.2018 17:44 0,7 C 0,0 C 96 % 1023,8 hPa 0,0 l/m 0,1 km/h (0 Bft) O-SO 106 0 min 0 min 0 W/m 0,1 C 0,7 C 1,6 km/h (1 Bft) 87 %
18.12.2018 17:43 0,7 C 0,0 C 96 % 1023,8 hPa 0,0 l/m 0,0 km/h (0 Bft) O-SO 107 0 min 0 min 0 W/m 0,1 C 0,7 C 0,0 km/h (0 Bft) 88 %
18.12.2018 17:42 0,7 C 0,0 C 96 % 1023,8 hPa 0,0 l/m 0,0 km/h (0 Bft) O-SO 107 0 min 0 min 0 W/m 0,1 C 0,7 C 0,0 km/h (0 Bft) 96 %
18.12.2018 17:41 0,7 C 0,0 C 96 % 1023,8 hPa 0,0 l/m 0,0 km/h (0 Bft) O-SO 107 0 min 0 min 0 W/m 0,1 C 0,7 C 0,0 km/h (0 Bft) 92 %
18.12.2018 17:40 0,7 C 0,0 C 96 % 1023,8 hPa 0,0 l/m 0,0 km/h (0 Bft) O-SO 107 0 min 0 min 0 W/m 0,1 C 0,7 C 0,0 km/h (0 Bft) 96 %
18.12.2018 17:39 0,7 C 0,0 C 96 % 1023,8 hPa 0,0 l/m 0,1 km/h (0 Bft) O-SO 107 0 min 0 min 0 W/m 0,1 C 0,7 C 1,6 km/h (1 Bft) 88 %
18.12.2018 17:38 0,7 C 0,0 C 96 % 1023,9 hPa 0,0 l/m 0,3 km/h (0 Bft) O-SO 107 0 min 0 min 0 W/m 0,1 C 0,7 C 1,6 km/h (1 Bft) 91 %
18.12.2018 17:37 0,7 C 0,0 C 96 % 1023,9 hPa 0,0 l/m 1,3 km/h (1 Bft) O-SO 107 0 min 0 min 0 W/m 0,1 C 0,7 C 3,2 km/h (1 Bft) 91 %
18.12.2018 17:36 0,7 C 0,0 C 96 % 1023,8 hPa 0,0 l/m 0,0 km/h (0 Bft) O-SO 107 0 min 0 min 0 W/m 0,1 C 0,7 C 0,0 km/h (0 Bft) 88 %
18.12.2018 17:35 0,7 C 0,0 C 96 % 1023,8 hPa 0,0 l/m 0,1 km/h (0 Bft) O-SO 107 0 min 0 min 0 W/m 0,1 C 0,7 C 1,6 km/h (1 Bft) 96 %
18.12.2018 17:34 0,7 C 0,0 C 96 % 1023,8 hPa 0,0 l/m 1,5 km/h (1 Bft) O-SO 107 0 min 0 min 0 W/m 0,1 C 0,7 C 3,2 km/h (1 Bft) 92 %
18.12.2018 17:33 0,7 C 0,0 C 96 % 1023,8 hPa 0,0 l/m 2,1 km/h (1 Bft) O-SO 108 0 min 0 min 0 W/m 0,1 C 0,7 C 3,2 km/h (1 Bft) 96 %
18.12.2018 17:32 0,7 C 0,0 C 96 % 1023,9 hPa 0,0 l/m 1,8 km/h (1 Bft) O-SO 110 0 min 0 min 0 W/m 0,1 C 0,7 C 3,2 km/h (1 Bft) 88 %
18.12.2018 17:31 0,7 C 0,0 C 96 % 1023,9 hPa 0,0 l/m 0,5 km/h (0 Bft) O-SO 114 0 min 0 min 0 W/m 0,1 C 0,7 C 1,6 km/h (1 Bft) 100 %
18.12.2018 17:30 0,7 C 0,0 C 96 % 1023,9 hPa 0,0 l/m 0,0 km/h (0 Bft) O-SO 114 0 min 0 min 0 W/m 0,1 C 0,7 C 0,0 km/h (0 Bft) 88 %
18.12.2018 17:29 0,7 C 0,0 C 96 % 1023,9 hPa 0,0 l/m 0,0 km/h (0 Bft) O-SO 114 0 min 0 min 0 W/m 0,1 C 0,7 C 0,0 km/h (0 Bft) 91 %
18.12.2018 17:28 0,7 C 0,0 C 96 % 1023,9 hPa 0,0 l/m 0,0 km/h (0 Bft) O-SO 114 0 min 0 min 0 W/m 0,1 C 0,7 C 0,0 km/h (0 Bft) 100 %
18.12.2018 17:27 0,7 C 0,0 C 96 % 1023,9 hPa 0,0 l/m 2,0 km/h (1 Bft) O-SO 114 0 min 0 min 0 W/m 0,1 C 0,7 C 3,2 km/h (1 Bft) 96 %
18.12.2018 17:26 0,7 C 0,0 C 96 % 1023,9 hPa 0,0 l/m 0,9 km/h (0 Bft) SW 221 0 min 0 min 0 W/m 0,1 C 0,7 C 4,8 km/h (1 Bft) 96 %
18.12.2018 17:25 0,7 C 0,0 C 96 % 1023,9 hPa 0,0 l/m 0,2 km/h (0 Bft) O 95 0 min 0 min 0 W/m 0,1 C 0,7 C 1,6 km/h (1 Bft) 96 %
18.12.2018 17:24 0,7 C 0,0 C 96 % 1024,0 hPa 0,0 l/m 1,6 km/h (1 Bft) O 95 0 min 0 min 0 W/m 0,1 C 0,7 C 3,2 km/h (1 Bft) 96 %
18.12.2018 17:23 0,7 C 0,0 C 96 % 1023,9 hPa 0,0 l/m 1,1 km/h (1 Bft) O 95 0 min 0 min 0 W/m 0,1 C 0,7 C 3,2 km/h (1 Bft) 100 %
18.12.2018 17:22 0,7 C 0,0 C 96 % 1023,9 hPa 0,0 l/m 1,3 km/h (1 Bft) O 95 0 min 0 min 0 W/m 0,1 C 0,7 C 3,2 km/h (1 Bft) 96 %
18.12.2018 17:21 0,7 C 0,0 C 96 % 1023,9 hPa 0,0 l/m 1,2 km/h (1 Bft) O 95 0 min 0 min 0 W/m 0,1 C 0,7 C 1,6 km/h (1 Bft) 83 %
18.12.2018 17:20 0,7 C 0,0 C 96 % 1023,9 hPa 0,0 l/m 0,1 km/h (0 Bft) O 94 0 min 0 min 0 W/m 0,1 C 0,7 C 1,6 km/h (1 Bft) 96 %
_ Min-Zeit 09:11 19:00 19:01 18:06 - 19:00 - - - - - 05:38 09:12 19:00 05:24
Minimum _ -0,8 C 0,0 C 93 % 1023,6 hPa - 0,0 km/h (0 Bft) - - - - - -1,4 C -0,8 C 0,0 km/h (0 Bft) 65 %
_ Max-Zeit 19:00 19:00 05:43 23:20 19:00 12:45 - - 16:04 19:00 12:18 19:00 19:00 10:30 19:06
Maximum _ 1,8 C 0,0 C 100 % 1030,4 hPa 0,0 l/m 5,0 km/h
S-SW (1 Bft)
- - 1 min 0 min 145 W/m 0,9 C 1,8 C 8,0 km/h
O-NO (2 Bft)
100 %
Durchschnitt _ 0,4 C 0,0 C 95 % 1028,2 hPa #0,0 l/m 0,6 km/h (0 Bft) W-SW - #1 min. #0 min. 69 W/m -0,3 C 0,4 C 1,3 km/h (1 Bft) 89 %